FW2189 Weather Reports


Display with metric or nautical units.
time (UTC)temp
F
wind
direction
speed
MPH
gust
MPH
rain 1hr
in
rain 24hr
in
rain mn
in
humidity
%
barometer
mb
20260507050902 57 45 0.0 2.0 0.00 0.00 0.00 59 1020.0
20260507045402 57 286 1.0 2.0 0.00 0.00 0.00 59 1020.1
20260507043903 57 285 0.0 3.0 0.00 0.00 0.00 59 1020.0
20260507042403 57 90 1.0 3.0 0.00 0.00 0.00 59 1019.9
20260507040903 57 313 0.0 4.0 0.00 0.00 0.00 59 1019.8
20260507040054 57 61 2.0 4.0 0.00 0.00 0.00 58 1019.6
20260507034555 58 52 1.0 3.0 0.00 0.00 0.00 58 1019.5
20260507033759 58 69 1.0 3.0 0.00 0.00 0.00 57 1019.3
20260507030901 59 99 1.0 4.0 0.00 0.00 0.00 57 1019.1
20260507025402 60 51 1.0 3.0 0.00 0.00 0.00 57 1018.9
20260507023900 60 114 0.0 1.0 0.00 0.00 0.00 56 1018.7
20260507022401 61 76 0.0 0.0 0.00 0.00 0.00 55 1018.7
20260507020858 62 145 0.0 0.0 0.00 0.00 0.00 55 1018.6
20260507015351 63 72 0.0 0.0 0.00 0.00 0.00 53 1018.7
20260507014550 63 56 0.0 0.0 0.00 0.00 0.00 54 1018.8
20260507012349 63 59 0.0 0.0 0.00 0.00 0.00 53 1018.8
20260507010842 64 71 0.0 0.0 0.00 0.00 0.00 53 1018.8
20260507005334 65 62 0.0 0.0 0.00 0.00 0.00 52 1018.7
20260507004529 65 58 0.0 0.0 0.00 0.00 0.00 51 1018.7
20260507002331 65 66 0.0 0.0 0.00 0.00 0.00 52 1018.7
20260507001538 66 237 0.0 0.0 0.00 0.00 0.00 52 1018.6
20260506235330 67 72 0.0 0.0 0.00 0.00 0.00 51 1018.6
20260506233831 68 65 0.0 0.0 0.00 0.00 0.00 51 1018.5
20260506232330 68 76 0.0 0.0 0.00 0.00 0.00 50 1018.6
20260506231531 68 54 0.0 0.0 0.00 0.00 0.00 49 1018.5
20260506225331 68 296 0.0 0.0 0.00 0.00 0.00 50 1018.6
20260506224524 67 66 0.0 4.0 0.00 0.00 0.00 50 1018.9
20260506222331 66 290 1.0 5.0 0.00 0.00 0.00 53 1018.9
20260506222222 66 54 2.0 4.0 0.00 0.00 0.00 52 1019.1
20260506215331 67 62 2.0 4.0 0.00 0.00 0.00 51 1019.0
20260506213831 67 138 1.0 6.0 0.00 0.00 0.00 50 1019.0
20260506212330 67 141 2.0 4.0 0.00 0.00 0.00 51 1018.9
20260506210831 66 223 0.0 0.0 0.00 0.00 0.00 51 1019.3
20260506210019 66 195 1.0 4.0 0.00 0.00 0.00 51 1019.3
20260506203831 65 152 1.0 4.0 0.00 0.00 0.00 53 1019.4
20260506202331 64 114 0.0 0.0 0.00 0.00 0.00 56 1019.3
20260506200831 63 63 0.0 0.0 0.00 0.00 0.00 57 1019.5
20260506195330 63 80 0.0 0.0 0.00 0.00 0.00 58 1019.5
20260506193831 62 63 0.0 0.0 0.00 0.00 0.00 58 1019.6
20260506192331 62 155 0.0 0.0 0.00 0.00 0.00 57 1019.8
20260506190831 62 234 0.0 0.0 0.00 0.00 0.00 58 1019.7
20260506185331 61 166 0.0 0.0 0.00 0.00 0.00 59 1019.6
20260506184528 61 151 0.0 0.0 0.00 0.00 0.00 59 1019.6
20260506182331 60 148 0.0 0.0 0.00 0.00 0.00 62 1019.5
20260506180831 0 0.0 0.0 0.00 0.00 0.00 1019.7
20260506175330 58 233 0.0 0.0 0.00 0.00 0.00 63 1019.6
20260506173831 58 59 0.0 0.0 0.00 0.00 0.00 63 1019.6
20260506173029 58 151 0.0 0.0 0.00 0.00 0.00 63 1019.5
20260506170831 58 151 0.0 0.0 0.00 0.00 0.00 64 1019.4
20260506170032 57 149 0.0 0.0 0.00 0.00 0.00 64 1019.4
20260506163831 57 175 0.0 0.0 0.00 0.00 0.00 64 1019.6
20260506162331 57 193 0.0 0.0 0.00 0.00 0.00 64 1019.5
20260506160831 57 221 0.0 0.0 0.00 0.00 0.00 64 1019.4
20260506155331 57 113 0.0 0.0 0.00 0.00 0.00 64 1019.2
20260506153831 57 128 0.0 0.0 0.00 0.00 0.00 65 1018.8
20260506152332 56 51 0.0 0.0 0.00 0.00 0.00 66 1018.6
20260506151525 56 51 0.0 0.0 0.00 0.00 0.00 65 1019.2
20260506145331 56 51 0.0 0.0 0.00 0.00 0.00 65 1019.3
20260506144534 56 51 0.0 0.0 0.00 0.00 0.00 65 1019.2
20260506142331 56 51 0.0 0.0 0.00 0.00 0.00 65 1018.9
20260506140831 56 51 0.0 0.0 0.00 0.00 0.00 65 1018.4
20260506140024 57 51 0.0 0.0 0.00 0.00 0.00 65 1018.4
20260506133831 57 51 0.0 0.0 0.00 0.00 0.00 65 1018.3
20260506132331 57 51 0.0 0.0 0.00 0.00 0.00 66 1018.3
20260506130831 56 51 0.0 0.0 0.00 0.00 0.00 66 1018.0
20260506125331 56 51 0.0 0.0 0.00 0.00 0.00 65 1017.8
20260506123830 56 51 0.0 0.0 0.00 0.00 0.00 65 1017.7
20260506122331 56 51 0.0 0.0 0.00 0.00 0.00 65 1017.7
20260506120831 56 52 0.0 0.0 0.00 0.00 0.00 65 1017.8
20260506120026 57 51 0.0 0.0 0.00 0.00 0.00 64 1017.7
20260506113830 57 51 0.0 0.0 0.00 0.00 0.00 64 1017.5
20260506112327 57 52 0.0 0.0 0.00 0.00 0.00 64 1017.5
20260506110821 57 52 0.0 0.0 0.00 0.00 0.00 63 1017.3
20260506105318 57 51 0.0 0.0 0.00 0.00 0.00 65 1017.1
20260506103814 57 52 0.0 0.0 0.00 0.00 0.00 64 1016.9
20260506102314 57 52 0.0 0.0 0.00 0.00 0.00 64 1016.8
20260506100815 57 52 0.0 0.0 0.00 0.00 0.00 64 1016.6
20260506095312 57 52 0.0 0.0 0.00 0.00 0.00 63 1016.5
20260506093808 58 52 0.0 0.0 0.00 0.00 0.00 63 1016.3
20260506092308 58 52 0.0 0.0 0.00 0.00 0.00 63 1016.3
20260506090807 58 52 0.0 0.0 0.00 0.00 0.00 62 1016.2
20260506085956 59 52 0.0 0.0 0.00 0.00 0.00 62 1016.2
20260506083807 59 49 0.0 0.0 0.00 0.00 0.00 61 1016.1
20260506082305 59 49 0.0 0.0 0.00 0.00 0.00 62 1016.2
20260506080801 59 49 0.0 0.0 0.00 0.00 0.00 62 1016.2
20260506072959 60 49 0.0 0.0 0.00 0.00 0.00 62 1016.0
20260506071504 60 49 0.0 0.0 0.00 0.00 0.00 61 1015.9
20260506062305 61 49 0.0 0.0 0.00 0.00 0.00 61 1015.5
20260506060802 61 49 0.0 0.0 0.00 0.00 0.00 61 1015.6